Погода в Приволжском

Россия / Волгоградская область     48°14′23″N   44°34′39″E
темп.,
°C
ветер,
м/с
пор.,
м/с
влажн.,
%
обл.,
%
осадки,
мм/ч
давл.,
гПа
погр.,
м
13 мая, чт
чт1300:00+13св33730 0.0 101742
03:00+12св47783 0.0 1016117
06:00+13ссв257714 0.0 1016137
09:00+19св33600 0.0 1015450
12:00+23всв22530 0.0 10151068
15:00+25юв33455 0.0 10151300
18:00+24юв235090 0.0 1015121
21:00+20вюв225914 0.0 101611
14 мая, пт
пт1400:00+18всв236295 0.0 101612
03:00+17всв3363100 0.0 101626
06:00+17юв37694 0.0 1016190
09:00+23юв69485 0.0 1016541
12:00+28юв710360 0.0 10161225
15:00+31ююв813270 0.0 10142261
18:00+28юв715345 0.0 1014448
21:00+22юв6173313 0.0 1016385
15 мая, сб
сб1500:00+18юв5153785 0.0 1016299
03:00+16юв410400 0.0 1016163
06:00+17юв411477 0.0 1016220
09:00+24юв71233100 0.0 1016546
12:00+30ююв812225 0.0 10151768
15:00+31ююв811190 0.0 10142600
18:00+27юв510324 0.0 1014255
21:00+21ююв414395 0.0 1015237
16 мая, вс
вс1600:00+18ююв411465 0.0 1015183
03:00+17юв485198 0.0 1015118
06:00+18юв2654100 0.0 1015136
09:00+25вюв5736100 0.0 1014504
12:00+30юв61027100 0.0 10131559
15:00+32юв81022100 0.0 10113525
18:00+28юв6113210 0.0 1011332
21:00+22вюв515395 0.0 1012288
17 мая, пн
пн1700:00+19юв483987 0.0 1012115
03:00+17в334238 0.0 101232
06:00+18всв394561 0.0 1012221
09:00+26вюв693231 0.0 1012513
12:00+31юв9111751 0.0 10112917
15:00+31юв81118100 0.0 10103088
18:00+28вюв4831100 0.0 1010195
21:00+21юв333631 0.0 101223